SCP
0 0 0 0 0 0 0 0 0 0 0 0 0 -0 -0 -0 0 -0 0 0 0 -0 0 0 -0 0 0 0 0 0 0 0
0 0 0 0 0 0 0 0 0 0 0 0 0 -0 -0 -0 -0 0 0 0 1 0 0 0 0 0 0 0 0 0 0 0
0 0 0 0 0 0 0 0 0 0 0 0 0 0 0 -0 0 0 0 0 0 0 1 0 0 0 0 0 0 0 0 0
0 0 0 0 0 0 0 0 0 0 0 0 0 -0 -0 -0 0 0 0 0 0 0 0 0 0 0 0 -0 0 0 0 0
0 0 0 0 0 0 0 0 0 0 0 0 0 0 0 0 0 0 0 0 0 0 0 0 0 0 0 0 0 0 0 0
0 0 0 0 0 0 0 0 0 0 0 0 0 0 0 0 0 0 0 1 0 0 0 0 0 0 0 0 0 0 0 0
0 0 0 0 0 0 0 0 0 0 0 0 0 0 1 1 1 1 1 0 0 0 0 0 0 0 0 0 0 0 0 0
0 0 0 0 0 0 0 0 0 0 0 0 0 0 0 0 0 0 0 0 0 0 0 0 0 0 0 0 0 0 0 0
0 0 0 0 0 0 0 0 0 0 0 0 0 0 0 0 0 0 0 0 0 0 0 0 0 0 0 0 0 0 0 0
0 0 0 0 0 0 0 0 0 0 0 0 0 0 0 0 0 0 0 0 0 0 0 0 0 0 0 0 0 0 0 0
0 0 0 0 0 0 0 0 0 0 0 0 0 0 0 0 0 0 0 0 0 0 0 0 0 0 0 0 0 0 0 0
0 0 0 0 0 0 0 0 0 0 0 0 0 0 0 0 0 0 0 0 0 0 0 0 0 0 0 0 0 0 0 0
0 0 0 0 0 0 0 0 0 0 0 0 0 0 0 0 0 0 0 0 0 0 0 0 0 0 0 0 0 0 0 0
0 0 0 0 0 0 0 0 0 0 0 0 0 0 0 0 0 0 0 0 0 0 0 0 0 0 0 0 0 0 0 0
0 0 0 0 0 0 0 0 0 0 0 0 0 0 0 0 0 0 0 0 0 0 0 0 0 0 0 0 0 0 0 0
0 0 0 0 0 0 0 0 0 0 0 0 0 0 0 0 0 0 0 0 0 0 0 0 0 0 0 0 0 0 0 0
0 0 0 0 0 0 0 0 0 0 0 0 0 0 0 0 0 0 0 0 0 0 0 0 0 0 0 0 0 0 0 0
0 0 0 0 0 0 0 0 0 0 0 0 0 0 0 0 0 0 0 0 0 0 0 0 0 0 0 0 0 0 0 0
0 0 0 0 0 0 0 0 0 0 0 0 0 0 0 0 0 0 0 0 0 0 0 0 0 0 0 0 0 0 0 0
Wind_Speed_500mb
5 5 11 7 3 7 16 6 4 5 6 11 10 11 9 12 17 41 48 43 26 20 23 27 23 15 26 24 16 16 26 38
8 5 14 6 11 7 7 7 5 9 8 9 12 16 13 19 35 27 21 37 25 19 13 15 19 19 12 14 23 25 24 24
6 10 3 4 5 14 11 7 10 3 11 11 16 16 19 30 32 19 14 23 25 27 16 13 23 16 11 14 21 11 24 26
2 12 6 6 8 9 10 6 3 5 10 7 14 18 5 22 19 11 8 15 19 12 10 12 16 16 23 24 24 17 17 21
13 13 9 12 7 8 11 7 10 10 10 11 14 7 12 16 18 9 8 11 9 5 4 3 6 10 16 24 24 17 17 18
14 12 8 6 4 5 7 7 9 10 6 10 13 8 2 1 1 3 3 8 10 6 12 15 12 13 14 9 17 25 21 22
8 10 13 6 5 4 4 2 8 10 10 6 8 7 15 21 24 24 24 19 19 19 17 18 16 16 20 24 27 30 33 38
10 16 16 11 11 9 9 7 10 14 9 4 17 39 45 42 46 43 36 30 24 23 20 20 21 19 19 20 28 32 40 47
3 7 7 7 7 3 6 6 5 8 8 4 14 30 33 35 34 32 27 22 21 24 27 29 30 33 35 36 40 39 37 37
6 7 2 8 5 15 15 8 9 20 11 16 27 33 33 28 24 21 18 22 28 32 34 35 38 40 42 42 44 43 43 44
9 5 4 7 12 8 7 3 6 14 19 31 35 29 21 15 14 14 16 21 27 33 39 44 46 48 49 51 53 53 52 52
6 11 13 9 4 8 13 4 21 22 20 14 17 3 6 4 4 12 20 28 38 44 45 45 44 42 42 42 42 42 42 46
4 5 9 8 5 16 9 12 32 23 16 11 7 5 9 3 13 23 32 37 39 39 41 42 43 40 42 42 42 44 47 48
6 6 10 12 10 13 9 30 31 21 13 11 11 5 4 13 20 27 33 36 33 36 41 44 43 45 52 55 56 56 56 60
10 8 3 6 8 15 28 38 23 18 14 10 10 3 7 15 23 29 31 31 27 32 39 40 37 41 44 50 55 63 66 65
6 5 7 26 30 24 25 25 21 16 14 9 3 5 13 20 25 22 24 24 28 33 38 39 43 46 50 58 68 75 70 67
2 2 9 12 26 31 29 25 22 16 8 4 9 13 14 16 18 19 20 22 30 36 42 48 51 54 60 69 71 68 69 70
12 35 14 27 35 30 27 24 15 6 3 8 12 13 13 14 16 17 22 29 35 39 44 49 51 55 66 72 66 65 70 70
8 46 21 41 34 29 24 19 10 3 4 9 14 14 14 13 18 24 30 35 41 45 47 48 54 58 69 70 62 61 66 60
Wind_Direction_500mb
206 177 129 178 131 161 105 356 49 285 281 318 324 302 303 229 186 154 149 123 99 64 32 20 11 324 292 286 280 285 313 277
275 125 42 131 151 75 17 133 220 302 280 239 228 246 245 248 220 197 101 100 114 100 73 42 38 5 335 268 289 293 310 297
32 19 214 55 54 55 111 104 155 180 268 223 228 209 216 234 205 201 80 91 83 99 102 68 26 20 359 329 334 301 321 319
233 299 273 102 118 118 118 215 51 139 271 346 268 214 216 252 239 281 39 110 86 116 118 63 16 350 350 360 337 331 318 311
353 347 356 57 49 97 108 103 186 140 261 9 359 198 187 196 220 285 81 86 68 124 123 33 298 312 317 345 343 333 342 344
182 195 147 99 79 117 105 114 168 222 285 349 347 345 156 285 148 158 291 21 18 6 340 315 315 254 262 332 330 312 308 316
57 84 80 80 4 52 9 184 152 194 145 344 328 345 85 94 79 67 54 46 25 6 1 360 353 336 314 314 291 280 289 294
53 50 93 72 32 47 55 89 68 113 65 317 76 89 83 83 85 76 66 61 49 38 26 16 359 347 336 320 327 282 273 279
156 22 56 24 334 8 50 19 164 148 160 170 57 66 72 77 76 69 53 35 19 8 357 349 335 322 304 297 293 292 291 289
110 36 142 278 14 107 106 34 61 108 109 113 108 93 81 72 68 56 28 4 353 340 332 322 311 301 296 295 289 288 286 282
112 81 324 304 242 203 136 345 357 126 137 136 116 95 56 48 38 19 355 341 329 326 322 316 312 310 307 301 295 289 284 280
116 126 191 244 171 165 124 272 191 173 177 170 160 182 202 135 16 349 340 333 327 323 323 322 321 317 317 318 321 319 316 306
112 143 288 239 160 155 104 236 168 173 162 157 146 146 135 343 327 330 330 331 329 329 333 337 335 330 327 332 331 324 318 314
96 93 255 171 110 158 182 140 152 157 143 109 107 129 287 310 325 330 330 329 330 335 339 340 333 326 326 329 326 320 314 308
168 205 295 228 245 169 152 147 145 146 144 158 161 199 319 328 332 334 339 344 342 346 343 334 332 335 342 341 337 331 322 315
96 291 55 122 133 143 148 146 147 147 152 153 123 353 334 338 344 351 350 346 352 354 346 354 351 349 348 343 337 335 332 329
58 298 119 169 158 147 141 143 143 134 117 46 355 347 354 3 357 360 358 358 2 353 349 352 352 352 350 346 345 343 338 334
213 188 165 170 159 156 153 149 143 129 54 359 1 18 33 32 29 23 16 12 7 360 357 355 354 354 355 352 349 346 341 340
166 160 153 151 158 163 163 152 142 115 43 50 60 61 74 74 62 46 33 22 15 9 3 1 1 1 358 358 353 351 347 343
Wind_Speed_850mb
5 5 11 7 3 7 16 6 4 5 6 11 10 11 9 12 17 41 48 43 26 20 23 27 23 15 26 24 16 16 26 38
8 5 14 6 11 7 7 7 5 9 8 9 12 16 13 19 35 27 21 37 25 19 13 15 19 19 12 14 23 25 24 24
6 10 3 4 5 14 11 7 10 3 11 11 16 16 19 30 32 19 14 23 25 27 16 13 23 16 11 14 21 11 24 26
2 12 6 6 8 9 10 6 3 5 10 7 14 18 5 22 19 11 8 15 19 12 10 12 16 16 23 24 24 17 17 21
13 13 9 12 7 8 11 7 10 10 10 11 14 7 12 16 18 9 8 11 9 5 4 3 6 10 16 24 24 17 17 18
14 12 8 6 4 5 7 7 9 10 6 10 13 8 2 1 1 3 3 8 10 6 12 15 12 13 14 9 17 25 21 22
8 10 13 6 5 4 4 2 8 10 10 6 8 7 15 21 24 24 24 19 19 19 17 18 16 16 20 24 27 30 33 38
10 16 16 11 11 9 9 7 10 14 9 4 17 39 45 42 46 43 36 30 24 23 20 20 21 19 19 20 28 32 40 47
3 7 7 7 7 3 6 6 5 8 8 4 14 30 33 35 34 32 27 22 21 24 27 29 30 33 35 36 40 39 37 37
6 7 2 8 5 15 15 8 9 20 11 16 27 33 33 28 24 21 18 22 28 32 34 35 38 40 42 42 44 43 43 44
9 5 4 7 12 8 7 3 6 14 19 31 35 29 21 15 14 14 16 21 27 33 39 44 46 48 49 51 53 53 52 52
6 11 13 9 4 8 13 4 21 22 20 14 17 3 6 4 4 12 20 28 38 44 45 45 44 42 42 42 42 42 42 46
4 5 9 8 5 16 9 12 32 23 16 11 7 5 9 3 13 23 32 37 39 39 41 42 43 40 42 42 42 44 47 48
6 6 10 12 10 13 9 30 31 21 13 11 11 5 4 13 20 27 33 36 33 36 41 44 43 45 52 55 56 56 56 60
10 8 3 6 8 15 28 38 23 18 14 10 10 3 7 15 23 29 31 31 27 32 39 40 37 41 44 50 55 63 66 65
6 5 7 26 30 24 25 25 21 16 14 9 3 5 13 20 25 22 24 24 28 33 38 39 43 46 50 58 68 75 70 67
2 2 9 12 26 31 29 25 22 16 8 4 9 13 14 16 18 19 20 22 30 36 42 48 51 54 60 69 71 68 69 70
12 35 14 27 35 30 27 24 15 6 3 8 12 13 13 14 16 17 22 29 35 39 44 49 51 55 66 72 66 65 70 70
8 46 21 41 34 29 24 19 10 3 4 9 14 14 14 13 18 24 30 35 41 45 47 48 54 58 69 70 62 61 66 60
Wind_Direction_850mb
206 177 129 178 131 161 105 356 49 285 281 318 324 302 303 229 186 154 149 123 99 64 32 20 11 324 292 286 280 285 313 277
275 125 42 131 151 75 17 133 220 302 280 239 228 246 245 248 220 197 101 100 114 100 73 42 38 5 335 268 289 293 310 297
32 19 214 55 54 55 111 104 155 180 268 223 228 209 216 234 205 201 80 91 83 99 102 68 26 20 359 329 334 301 321 319
233 299 273 102 118 118 118 215 51 139 271 346 268 214 216 252 239 281 39 110 86 116 118 63 16 350 350 360 337 331 318 311
353 347 356 57 49 97 108 103 186 140 261 9 359 198 187 196 220 285 81 86 68 124 123 33 298 312 317 345 343 333 342 344
182 195 147 99 79 117 105 114 168 222 285 349 347 345 156 285 148 158 291 21 18 6 340 315 315 254 262 332 330 312 308 316
57 84 80 80 4 52 9 184 152 194 145 344 328 345 85 94 79 67 54 46 25 6 1 360 353 336 314 314 291 280 289 294
53 50 93 72 32 47 55 89 68 113 65 317 76 89 83 83 85 76 66 61 49 38 26 16 359 347 336 320 327 282 273 279
156 22 56 24 334 8 50 19 164 148 160 170 57 66 72 77 76 69 53 35 19 8 357 349 335 322 304 297 293 292 291 289
110 36 142 278 14 107 106 34 61 108 109 113 108 93 81 72 68 56 28 4 353 340 332 322 311 301 296 295 289 288 286 282
112 81 324 304 242 203 136 345 357 126 137 136 116 95 56 48 38 19 355 341 329 326 322 316 312 310 307 301 295 289 284 280
116 126 191 244 171 165 124 272 191 173 177 170 160 182 202 135 16 349 340 333 327 323 323 322 321 317 317 318 321 319 316 306
112 143 288 239 160 155 104 236 168 173 162 157 146 146 135 343 327 330 330 331 329 329 333 337 335 330 327 332 331 324 318 314
96 93 255 171 110 158 182 140 152 157 143 109 107 129 287 310 325 330 330 329 330 335 339 340 333 326 326 329 326 320 314 308
168 205 295 228 245 169 152 147 145 146 144 158 161 199 319 328 332 334 339 344 342 346 343 334 332 335 342 341 337 331 322 315
96 291 55 122 133 143 148 146 147 147 152 153 123 353 334 338 344 351 350 346 352 354 346 354 351 349 348 343 337 335 332 329
58 298 119 169 158 147 141 143 143 134 117 46 355 347 354 3 357 360 358 358 2 353 349 352 352 352 350 346 345 343 338 334
213 188 165 170 159 156 153 149 143 129 54 359 1 18 33 32 29 23 16 12 7 360 357 355 354 354 355 352 349 346 341 340
166 160 153 151 158 163 163 152 142 115 43 50 60 61 74 74 62 46 33 22 15 9 3 1 1 1 358 358 353 351 347 343